Regional Weather Roundup
Issued by NWS

Home | Current Version | Previous Version | Graphics & Text | Print | Product List | Glossary On
Versions: 1 2 3 4 5 6 7 8 9 10 11 12 13 14 15 16 17 18 19 20 21 22 23 24 25 26 27 28 29 30 31 32 33 34 35 36 37 38 39 40 41 42 43 44 45 46 47 48 49 50
000
ASUS43 KDTX 101210
RWRMI
MICHIGAN HOURLY REGIONAL WEATHER ROUNDUP
NATIONAL WEATHER SERVICE DETROIT/PONTIAC MI
800 AM EDT THU JUL 10 2014

NOTE: "FAIR" INDICATES FEW OR NO CLOUDS BELOW 12,000 FEET WITH NO
SIGNIFICANT WEATHER AND/OR OBSTRUCTION TO VISIBILITY.

MIZ047>049-052>055-059>063-066>070-074>076-081>083-101300-
SOUTHEAST LOWER MICHIGAN

CITY           SKY/WX    TMP DP  RH WIND       PRES   REMARKS
ADRIAN         FAIR      60  55  83 N7        30.13R
6HR MIN TEMP:  57; 6HR MAX TEMP:  60;

ALMA           FAIR      57  51  81 N6        30.16R
ANN ARBOR      FAIR      63  55  75 N6        30.12R
BAD AXE        FAIR      59  58  94 N3        30.15R
6HR MIN TEMP:  51; 6HR MAX TEMP:  59;

CARO           FAIR      62  60  94 N6        30.14R
DETROIT CITY   FAIR      67  55  65 N6        30.11R
6HR MIN TEMP:  61; 6HR MAX TEMP:  69;

DETROIT        FAIR      64  57  78 N6        30.11R
6HR MIN TEMP:  59; 6HR MAX TEMP:  66;

FLINT          FAIR      63  55  75 NE5       30.14R
6HR MIN TEMP:  56; 6HR MAX TEMP:  63;

GROSSE ILE     FAIR      64  57  77 N5        30.10R
HILLSDALE      FAIR      58  57  94 CALM      30.14R
HOWELL         FAIR      57  55  92 N3        30.14R

CITY           SKY/WX    TMP DP  RH WIND       PRES   REMARKS
JACKSON        FAIR      58  55  90 CALM      30.14R
6HR MIN TEMP:  53; 6HR MAX TEMP:  58;

LAMBERTVILLE   FAIR      61  55  82 NW3       30.11R
LANSING        FAIR      58  53  84 N6        30.15R
6HR MIN TEMP:  53; 6HR MAX TEMP:  58;

LAPEER         FAIR      59  55  87 N3        30.14R
MASON          FAIR      57  54  89 N5        30.14R
MONROE         FAIR      63  57  82 CALM      30.09R
MT. CLEMENS    MOSUNNY   63  59  89 N5        30.10R
6HR MIN TEMP:  55; 6HR MAX TEMP:  63;

PONTIAC        PTSUNNY   61  56  83 N5        30.12R
6HR MIN TEMP:  57; 6HR MAX TEMP:  61;

PORT HOPE        N/A     61  54  77 NE10      30.13R
6HR MIN TEMP:  53; 6HR MAX TEMP:  62;

PORT HURON     PTSUNNY   59  59 100 CALM      30.13R
TRI CITIES     FAIR      58  51  78 N10       30.16R
6HR MIN TEMP:  55; 6HR MAX TEMP:  60;

TROY           PTSUNNY   63  57  82 CALM      30.13R
SAGINAW HB     FAIR      59  57  94 NW6       30.14R
$$
MIZ043>046-050>051-056>058-064>065-071>073-077>080-101300-
SOUTHWEST LOWER MICHIGAN

CITY           SKY/WX    TMP DP  RH WIND       PRES   REMARKS
BATTLE CREEK   FAIR      59  53  80 N7        30.15R
6HR MIN TEMP:  54; 6HR MAX TEMP:  59;

BENTON HARBOR  FAIR      58  55  90 CALM      30.15R
6HR MIN TEMP:  52; 6HR MAX TEMP:  58;

BIG RAPIDS     FAIR      53  53 100 NW5       30.17R
6HR MIN TEMP:  47; 6HR MAX TEMP:  53;

COLDWATER      FAIR      59  55  88 N6        30.14R
6HR MIN TEMP:  55; 6HR MAX TEMP:  59;

FREMONT        FAIR      55  55 100 CALM      30.17R
HOLLAND        FAIR      61  55  81 CALM      30.16R
6HR MIN TEMP:  54; 6HR MAX TEMP:  61;

GRAND RAPIDS   FAIR      60  55  83 CALM      30.15R
6HR MIN TEMP:  55; 6HR MAX TEMP:  60;

IONIA          FAIR      57  53  88 N7        30.15R
KALAMAZOO      FAIR      60  54  80 N3        30.15R
6HR MIN TEMP:  52; 6HR MAX TEMP:  60;

LUDINGTON      FAIR      52  52  97 CALM      30.17R
6HR MIN TEMP:  43; 6HR MAX TEMP:  52;

MARSHALL       FAIR      57  53  86 N3        30.14R
MOUNT PLEASANT FAIR      56  53  89 CALM      30.16R
6HR MIN TEMP:  51; 6HR MAX TEMP:  56;

MUSKEGON       FAIR      60  54  80 CALM      30.16R HAZE
6HR MIN TEMP:  53; 6HR MAX TEMP:  60;

SOUTH HAVEN    FAIR      58  56  94 NE5       30.15R
$$
MIZ016>042-101300-
NORTHERN LOWER MICHIGAN

CITY           SKY/WX    TMP DP  RH WIND       PRES   REMARKS
ALPENA         FAIR      53  50  89 W5        30.17R
6HR MIN TEMP:  47; 6HR MAX TEMP:  54;

BEAVER ISLAND  FAIR      54  54 100 CALM      30.17R
6HR MIN TEMP:  41; 6HR MAX TEMP:  54;

BELLAIRE       FAIR      49  48  95 CALM      30.18R
6HR MIN TEMP:  42; 6HR MAX TEMP:  49;

CADILLAC       FAIR      49  48  95 CALM      30.17R
CHARLEVOIX     FAIR      54  53  96 CALM      30.19R
6HR MIN TEMP:  46; 6HR MAX TEMP:  54;

FRANKFORT      FAIR      51  48  87 CALM      30.17R
GAYLORD        FAIR      48  45  89 CALM      30.17R
6HR MIN TEMP:  40; 6HR MAX TEMP:  49;

GRAYLING       FOG       48  48 100 CALM      30.18R VSB 1/4
6HR MIN TEMP:  38; 6HR MAX TEMP:  48;

HARBOR SPRINGS FAIR      52  50  93 CALM      30.16R
HOUGHTON LAKE  FAIR      49  48  97 CALM      30.17R
6HR MIN TEMP:  40; 6HR MAX TEMP:  49;

MANISTEE       CLOUDY    48  46  93 E3        30.18R VSB<1/4
OSCODA         FAIR      54  51  89 N3        30.15R
PELLSTON       FAIR      50  49  96 CALM      30.18R
6HR MIN TEMP:  39; 6HR MAX TEMP:  50;

ROGERS CITY    FAIR      55  51  87 W3        30.17R
TRAVERSE CITY  FAIR      54  50  86 CALM      30.16R
6HR MIN TEMP:  48; 6HR MAX TEMP:  54;

$$
MIZ007>008-015-101300-
EASTERN UPPER MICHIGAN

CITY           SKY/WX    TMP DP  RH WIND       PRES   REMARKS
KINROSS        SUNNY     48  46  93 CALM      30.16R
6HR MIN TEMP:  43; 6HR MAX TEMP:  48;

MACKINAC ISLAN FAIR      55  51  89 NW3       30.17R
6HR MIN TEMP:  47; 6HR MAX TEMP:  55;

NEWBERRY       SUNNY     52  49  90 CALM      30.16R
6HR MIN TEMP:  40; 6HR MAX TEMP:  52;

S. S. MARIE    SUNNY     52  46  80 W3        30.15R
6HR MIN TEMP:  43; 6HR MAX TEMP:  52;

MUNISING         N/A     53  47  79 S6        30.13S
6HR MIN TEMP:  46; 6HR MAX TEMP:  53;

$$
MIZ004>006-011>014-085-101300-
CENTRAL UPPER MICHIGAN

CITY           SKY/WX    TMP DP  RH WIND       PRES   REMARKS
MANISTIQUE     FAIR      53  50  90 CALM      30.15S
6HR MIN TEMP:  39; 6HR MAX TEMP:  53;

ESCANABA       FAIR      52  48  87 CALM      30.15R
6HR MIN TEMP:  45; 6HR MAX TEMP:  52;

MENOMINEE      FAIR      54  52  94 CALM      30.14R
6HR MIN TEMP:  46; 6HR MAX TEMP:  54; 6HR PCP:  0.01;

SAWYER-GWINN   SUNNY     48  46  93 CALM      30.14R
$$
MIZ001>003-009>011-084-101300-
WESTERN UPPER MICHIGAN

CITY           SKY/WX    TMP DP  RH WIND       PRES   REMARKS
IRON MOUNTAIN  FAIR      50  46  86 CALM      30.14R
6HR MIN TEMP:  41; 6HR MAX TEMP:  50;

HOUGHTON       SUNNY     58  49  72 CALM      30.11R
6HR MIN TEMP:  43; 6HR MAX TEMP:  58;

COPPER HARBOR    N/A     57  47  69 SW6       30.10R
6HR MIN TEMP:  52; 6HR MAX TEMP:  57;

$$

ABBREVIATIONS USED IN REMARKS
   TC - TEMPERATURE IN CELSIUS
  WCI - WIND CHILL INDEX
   HX - HEAT INDEX
  VSB - VISIBILITY




USA.gov is the U.S. government's official web portal to all federal, state and local government web resources and services.